Shreveport, LA

12:46 AM CST on January 24, 2018 (GMT -0600)
Shreveport Regional

Weather History for KSHV - June, 2013

Change the Weather History Date:

Monday, June 10, 2013

  Actual Average Record
Temperature  
Mean Temperature 81 °F 79 °F  
Max Temperature 93 °F 89 °F 101 °F (1875)
Min Temperature 68 °F 69 °F 55 °F (1877)
Degree Days  
Heating Degree Days 0 0  
Month to date heating degree days 0 0  
Since 1 June heating degree days 0 0  
Since 1 July heating degree days 2081 2226  
Cooling Degree Days 16 14  
Month to date cooling degree days 126 131  
Year to date cooling degree days 513 529  
Since 1 June cooling degree days 126 131  
Growing Degree Days 30 (Base 50)    
Moisture  
Dew Point 69 °F    
Average Humidity 71    
Maximum Humidity 97    
Minimum Humidity 44    
Precipitation  
Precipitation 0.00 in 0.18 in 2.31 in (1985)
Month to date precipitation 4.57 1.70  
Year to date precipitation 21.42 23.91  
Snow  
Snow 0.00 in - - ()
Month to date snowfall 0.0  
Since 1 June snowfall 0.0  
Since 1 July snowfall 0.1  
Snow Depth 0.00 in    
Sea Level Pressure  
Sea Level Pressure 29.95 in    
Wind  
Wind Speed 5 mph (SSW)    
Max Wind Speed 10 mph    
Max Gust Speed 29 mph    
Visibility 10 miles    
Events      
T = Trace of Precipitation, MM = Missing Value Source: NWS Daily Summary

Daily Weather History Graph

Daily Weather History Graph

Search for Another Location

Airport or City:

Trip Planner

Search our weather history database for the weather conditions in past years. The results will help you decide how hot, cold, wet, or windy it might be!

Date:

Astronomy

Jun. 10, 2013 Rise Set
Actual Time 6:07 AM CDT 8:22 PM CDT
Civil Twilight 5:39 AM CDT 8:50 PM CDT
Nautical Twilight 5:04 AM CDT 9:25 PM CDT
Astronomical Twilight 4:27 AM CDT 10:02 PM CDT
Moon 7:52 AM CDT (6/10) 9:55 PM CDT (6/10)
Length of Visible Light 15h 11m
Length of Day
14h 14m
Waxing Crescent, 4% of the Moon is Illuminated
Jun 10
Waxing Crescent
Jun 16
First Quarter
Jun 23
Full
Jun 29
Last Quarter
Jul 8
New

Hourly Weather History & Observations

Time (CDT) Temp. Heat Index Dew Point Humidity Pressure Visibility Wind Dir Wind Speed Gust Speed Precip Events Conditions
12:56 AM 71.1 °F - 68.0 °F 90% 29.94 in 10.0 mi SSW 5.8 mph - N/A   Clear
1:56 AM 71.1 °F - 69.1 °F 93% 29.94 in 10.0 mi SW 6.9 mph - N/A   Clear
2:56 AM 71.1 °F - 69.1 °F 93% 29.93 in 10.0 mi SW 4.6 mph - N/A   Clear
3:56 AM 69.1 °F - 66.9 °F 93% 29.94 in 10.0 mi SW 4.6 mph - N/A   Clear
4:56 AM 70.0 °F - 66.9 °F 90% 29.95 in 10.0 mi SW 4.6 mph - N/A   Clear
5:56 AM 69.1 °F - 66.9 °F 93% 29.95 in 10.0 mi SW 3.5 mph - N/A   Clear
6:53 AM 69.8 °F - 66.2 °F 88% 29.96 in 10.0 mi Calm Calm - N/A   Partly Cloudy
6:56 AM 70.0 °F - 68.0 °F 93% 29.95 in 10.0 mi South 3.5 mph - N/A   Clear
7:56 AM 72.0 °F - 68.0 °F 87% 29.96 in 10.0 mi WSW 3.5 mph - N/A   Partly Cloudy
8:56 AM 77.0 °F - 69.1 °F 76% 29.96 in 10.0 mi WSW 5.8 mph - N/A   Partly Cloudy
9:56 AM 82.0 °F 85.5 °F 69.1 °F 65% 29.97 in 10.0 mi Variable 3.5 mph - N/A   Partly Cloudy
10:56 AM 84.9 °F 89.4 °F 70.0 °F 61% 29.97 in 10.0 mi NW 3.5 mph - N/A   Clear
11:56 AM 87.1 °F 92.0 °F 70.0 °F 57% 29.96 in 10.0 mi Calm Calm - N/A   Clear
12:56 PM 89.1 °F 94.1 °F 70.0 °F 53% 29.96 in 10.0 mi Variable 4.6 mph - N/A   Partly Cloudy
1:56 PM 91.0 °F 96.6 °F 70.0 °F 50% 29.95 in 10.0 mi South 6.9 mph - N/A   Partly Cloudy
2:56 PM 91.0 °F 97.6 °F 71.1 °F 52% 29.95 in 10.0 mi South 5.8 mph - N/A   Partly Cloudy
3:56 PM 91.0 °F 96.6 °F 70.0 °F 50% 29.94 in 10.0 mi SSW 6.9 mph - N/A   Partly Cloudy
4:56 PM 91.0 °F 95.6 °F 69.1 °F 48% 29.94 in 10.0 mi South 6.9 mph - N/A   Scattered Clouds
5:56 PM 91.0 °F 94.3 °F 66.9 °F 45% 29.93 in 10.0 mi SW 5.8 mph - N/A   Partly Cloudy
6:56 PM 89.1 °F 94.1 °F 70.0 °F 53% 29.92 in 10.0 mi South 9.2 mph - N/A   Partly Cloudy
7:56 PM 86.0 °F 91.5 °F 71.1 °F 61% 29.93 in 10.0 mi South 4.6 mph - N/A   Clear
8:56 PM 82.0 °F 86.7 °F 72.0 °F 71% 29.94 in 10.0 mi SSW 3.5 mph - N/A   Clear
9:56 PM 81.0 °F 85.2 °F 72.0 °F 74% 29.95 in 10.0 mi South 4.6 mph - N/A   Clear
10:56 PM 78.1 °F - 72.0 °F 81% 29.96 in 10.0 mi South 5.8 mph - N/A   Clear
11:56 PM 78.1 °F - 71.1 °F 79% 29.96 in 10.0 mi SSW 3.5 mph - N/A   Clear